Location: Northeast Philadelphia Airport
(40.0833°N, 75.0000°W)
Time: 09:01:25
(UTC-04:00)

Tiangong 2 - Visible Passes

Search period start: 19 October 2018 00:00
Search period end: 29 October 2018 00:00
Orbit: 384 x 393 km, 42.8° (Epoch: 19 October)

Date Brightness Start Highest point End Pass type
(mag) Time Alt. Az. Time Alt. Az. Time Alt. Az.
19 Oct 3.6 05:13:40 17° SE 05:13:40 17° SE 05:14:38 10° SE visible
20 Oct 3.6 05:50:52 12° SSW 05:50:52 12° SSW 05:51:23 10° S visible
26 Oct 3.4 19:45:23 10° SSW 19:46:22 15° S 19:46:22 15° S visible
27 Oct 3.4 18:48:23 10° SSE 18:49:37 12° SE 18:50:51 10° ESE visible
27 Oct 4.2 20:22:52 10° WSW 20:23:18 13° WSW 20:23:18 13° WSW visible
28 Oct 1.8 19:24:42 10° SW 19:27:38 36° SSE 19:27:50 36° SE visible
